| time (UTC) | temp F | wind direction | speed MPH | gust MPH | rain 1hr in | rain 24hr in | rain mn in | humidity % | barometer mb |
| 20260502233422 | 48 | 77 | 1.0 | 3.0 | 0.00 | 0.00 | 0.00 | 51 | 1016.4 |
| 20260502232923 | 48 | 77 | 1.0 | 3.0 | 0.00 | 0.00 | 0.00 | 51 | 1016.0 |
| 20260502232422 | 48 | 105 | 0.0 | 2.0 | 0.00 | 0.00 | 0.00 | 50 | 1015.9 |
| 20260502231923 | 48 | 72 | 1.0 | 3.0 | 0.00 | 0.00 | 0.00 | 50 | 1016.4 |
| 20260502231432 | 48 | 217 | 0.0 | 3.0 | 0.00 | 0.00 | 0.00 | 50 | 1016.4 |
| 20260502231153 | 48 | 153 | 2.0 | 3.0 | 0.00 | 0.00 | 0.00 | 50 | 1016.5 |
| 20260502230420 | 48 | 63 | 0.0 | 2.0 | 0.00 | 0.00 | 0.00 | 50 | 1016.4 |
| 20260502225922 | 48 | 99 | 2.0 | 2.0 | 0.00 | 0.00 | 0.00 | 50 | 1016.5 |
| 20260502225420 | 48 | 117 | 0.0 | 2.0 | 0.00 | 0.00 | 0.00 | 50 | 1016.4 |
| 20260502224921 | 48 | 80 | 1.0 | 3.0 | 0.00 | 0.00 | 0.00 | 50 | 1016.3 |
| 20260502224419 | 48 | 46 | 2.0 | 3.0 | 0.00 | 0.00 | 0.00 | 50 | 1016.1 |
| 20260502223920 | 48 | 47 | 2.0 | 3.0 | 0.00 | 0.00 | 0.00 | 50 | 1016.3 |
| 20260502223426 | 48 | 135 | 0.0 | 4.0 | 0.00 | 0.00 | 0.00 | 50 | 1016.4 |
| 20260502222921 | 48 | 108 | 1.0 | 4.0 | 0.00 | 0.00 | 0.00 | 50 | 1016.4 |
| 20260502222644 | 48 | 55 | 2.0 | 4.0 | 0.00 | 0.00 | 0.00 | 49 | 1016.5 |
| 20260502221919 | 49 | 47 | 2.0 | 4.0 | 0.00 | 0.00 | 0.00 | 49 | 1016.4 |
| 20260502221418 | 49 | 62 | 0.0 | 4.0 | 0.00 | 0.00 | 0.00 | 49 | 1016.5 |
| 20260502220919 | 49 | 151 | 0.0 | 4.0 | 0.00 | 0.00 | 0.00 | 50 | 1016.2 |
| 20260502220416 | 49 | 108 | 2.0 | 3.0 | 0.00 | 0.00 | 0.00 | 50 | 1016.5 |
| 20260502215929 | 48 | 59 | 2.0 | 3.0 | 0.00 | 0.00 | 0.00 | 50 | 1016.4 |
| 20260502215417 | 48 | 33 | 2.0 | 5.0 | 0.00 | 0.00 | 0.00 | 50 | 1016.3 |
| 20260502214943 | 49 | 51 | 3.0 | 5.0 | 0.00 | 0.00 | 0.00 | 50 | 1016.3 |
| 20260502214415 | 49 | 94 | 4.0 | 5.0 | 0.00 | 0.00 | 0.00 | 50 | 1016.1 |
| 20260502213916 | 49 | 56 | 1.0 | 3.0 | 0.00 | 0.00 | 0.00 | 49 | 1016.4 |
| 20260502213415 | 49 | 15 | 2.0 | 4.0 | 0.00 | 0.00 | 0.00 | 49 | 1016.4 |
| 20260502212916 | 49 | 88 | 2.0 | 4.0 | 0.00 | 0.00 | 0.00 | 49 | 1016.5 |
| 20260502212637 | 49 | 62 | 0.0 | 6.0 | 0.00 | 0.00 | 0.00 | 49 | 1016.4 |
| 20260502211915 | 49 | 51 | 2.0 | 6.0 | 0.00 | 0.00 | 0.00 | 49 | 1016.4 |
| 20260502211413 | 49 | 63 | 1.0 | 5.0 | 0.00 | 0.00 | 0.00 | 49 | 1016.3 |
| 20260502211354 | 49 | 103 | 1.0 | 3.0 | 0.00 | 0.00 | 0.00 | 49 | 1016.4 |
| 20260502210412 | 49 | 271 | 2.0 | 3.0 | 0.00 | 0.00 | 0.00 | 49 | 1016.6 |
| 20260502205909 | 49 | 227 | 0.0 | 3.0 | 0.00 | 0.00 | 0.00 | 49 | 1016.4 |
| 20260502205412 | 49 | 102 | 0.0 | 4.0 | 0.00 | 0.00 | 0.00 | 49 | 1016.4 |
| 20260502205128 | 49 | 50 | 2.0 | 4.0 | 0.00 | 0.00 | 0.00 | 49 | 1016.5 |
| 20260502204407 | 49 | 159 | 1.0 | 4.0 | 0.00 | 0.00 | 0.00 | 50 | 1016.6 |
| 20260502203910 | 49 | 86 | 2.0 | 4.0 | 0.00 | 0.00 | 0.00 | 51 | 1016.6 |
| 20260502203410 | 49 | 95 | 1.0 | 4.0 | 0.00 | 0.00 | 0.00 | 51 | 1016.6 |
| 20260502202907 | 49 | 116 | 1.0 | 4.0 | 0.00 | 0.00 | 0.00 | 50 | 1016.7 |
| 20260502202420 | 49 | 84 | 4.0 | 4.0 | 0.00 | 0.00 | 0.00 | 50 | 1017.0 |
| 20260502201908 | 49 | 29 | 1.0 | 3.0 | 0.00 | 0.00 | 0.00 | 50 | 1016.8 |
| 20260502201408 | 49 | 77 | 0.0 | 3.0 | 0.00 | 0.00 | 0.00 | 50 | 1016.9 |
| 20260502200907 | 50 | 109 | 1.0 | 4.0 | 0.00 | 0.00 | 0.00 | 49 | 1016.8 |
| 20260502200408 | 50 | 108 | 2.0 | 4.0 | 0.00 | 0.00 | 0.00 | 50 | 1017.1 |
| 20260502195907 | 50 | 29 | 3.0 | 4.0 | 0.00 | 0.00 | 0.00 | 50 | 1016.9 |
| 20260502195417 | 50 | 47 | 0.0 | 4.0 | 0.00 | 0.00 | 0.00 | 50 | 1017.0 |
| 20260502194906 | 49 | 43 | 2.0 | 4.0 | 0.00 | 0.00 | 0.00 | 50 | 1017.0 |
| 20260502194407 | 49 | 54 | 2.0 | 4.0 | 0.00 | 0.00 | 0.00 | 49 | 1017.2 |
| 20260502193905 | 49 | 322 | 1.0 | 4.0 | 0.00 | 0.00 | 0.00 | 49 | 1016.8 |
| 20260502193406 | 49 | 124 | 0.0 | 4.0 | 0.00 | 0.00 | 0.00 | 48 | 1017.4 |
| 20260502192905 | 49 | 124 | 0.0 | 4.0 | 0.00 | 0.00 | 0.00 | 50 | 1017.3 |
| 20260502192414 | 49 | 9 | 2.0 | 6.0 | 0.00 | 0.00 | 0.00 | 51 | 1017.5 |
| 20260502191903 | 49 | 29 | 2.0 | 6.0 | 0.00 | 0.00 | 0.00 | 51 | 1017.4 |
| 20260502191404 | 50 | 82 | 3.0 | 4.0 | 0.00 | 0.00 | 0.00 | 50 | 1017.3 |
| 20260502190902 | 50 | 23 | 2.0 | 4.0 | 0.00 | 0.00 | 0.00 | 52 | 1017.5 |
| 20260502190403 | 49 | 125 | 1.0 | 4.0 | 0.00 | 0.00 | 0.00 | 51 | 1017.3 |
| 20260502185902 | 49 | 55 | 1.0 | 5.0 | 0.00 | 0.00 | 0.00 | 52 | 1017.6 |
| 20260502185637 | 48 | 43 | 2.0 | 5.0 | 0.00 | 0.00 | 0.00 | 51 | 1017.4 |
| 20260502184900 | 48 | 50 | 2.0 | 4.0 | 0.00 | 0.00 | 0.00 | 51 | 1017.3 |
| 20260502184402 | 48 | 106 | 2.0 | 5.0 | 0.00 | 0.00 | 0.00 | 51 | 1017.6 |
| 20260502183859 | 48 | 65 | 0.0 | 5.0 | 0.00 | 0.00 | 0.00 | 51 | 1017.8 |
| 20260502183401 | 49 | 89 | 2.0 | 5.0 | 0.00 | 0.00 | 0.00 | 52 | 1017.9 |
| 20260502183123 | 49 | 80 | 3.0 | 5.0 | 0.00 | 0.00 | 0.00 | 52 | 1017.5 |
| 20260502182408 | 48 | 76 | 1.0 | 4.0 | 0.00 | 0.00 | 0.00 | 52 | 1017.6 |
| 20260502181858 | 48 | 55 | 0.0 | 4.0 | 0.00 | 0.00 | 0.00 | 51 | 1017.8 |
| 20260502181400 | 48 | 74 | 2.0 | 4.0 | 0.00 | 0.00 | 0.00 | 51 | 1017.9 |
| 20260502181346 | 49 | 29 | 0.0 | 5.0 | 0.00 | 0.00 | 0.00 | 52 | 1017.5 |
| 20260502180332 | 48 | 35 | 1.0 | 5.0 | 0.00 | 0.00 | 0.00 | 53 | 1018.0 |
| 20260502170336 | 47 | 29 | 0.0 | 4.0 | 0.00 | 0.00 | 0.00 | 54 | 1018.5 |
| 20260502164320 | 46 | 118 | 1.0 | 5.0 | 0.00 | 0.00 | 0.00 | 54 | 1018.3 |
| 20260502164047 | 46 | 107 | 1.0 | 5.0 | 0.00 | 0.00 | 0.00 | 54 | 1018.4 |
| 20260502163330 | 46 | 87 | 4.0 | 5.0 | 0.00 | 0.00 | 0.00 | 54 | 1018.6 |
| 20260502162824 | 47 | 97 | 1.0 | 8.0 | 0.00 | 0.00 | 0.00 | 55 | 1018.5 |
| 20260502162316 | 46 | 42 | 2.0 | 8.0 | 0.00 | 0.00 | 0.00 | 55 | 1018.4 |
| 20260502161817 | 46 | 62 | 2.0 | 6.0 | 0.00 | 0.00 | 0.00 | 56 | 1018.5 |
| 20260502161317 | 47 | 77 | 0.0 | 6.0 | 0.00 | 0.00 | 0.00 | 56 | 1018.7 |
| 20260502160817 | 46 | 122 | 0.0 | 6.0 | 0.00 | 0.00 | 0.00 | 57 | 1018.5 |
| 20260502160318 | 46 | 102 | 3.0 | 7.0 | 0.00 | 0.00 | 0.00 | 57 | 1018.5 |
| 20260502152317 | 44 | 46 | 0.0 | 6.0 | 0.00 | 0.00 | 0.00 | 59 | 1018.5 |
| 20260502151821 | 44 | 30 | 2.0 | 6.0 | 0.00 | 0.00 | 0.00 | 60 | 1018.1 |
| 20260502151317 | 44 | 89 | 2.0 | 5.0 | 0.00 | 0.00 | 0.00 | 60 | 1018.3 |
| 20260502150817 | 44 | 81 | 3.0 | 5.0 | 0.00 | 0.00 | 0.00 | 60 | 1018.6 |
| 20260502150316 | 44 | 52 | 0.0 | 5.0 | 0.00 | 0.00 | 0.00 | 60 | 1018.2 |
| 20260502130505 | 40 | 32 | 0.0 | 6.0 | 0.00 | 0.00 | 0.00 | 69 | 1018.2 |
| 20260502130225 | 39 | 111 | 3.0 | 6.0 | 0.00 | 0.00 | 0.00 | 69 | 1018.2 |
| 20260502123734 | 38 | 309 | 2.0 | 5.0 | 0.00 | 0.01 | 0.00 | 70 | 1018.3 |
| 20260502123450 | 37 | 87 | 3.0 | 5.0 | 0.00 | 0.01 | 0.00 | 70 | 1018.1 |
| 20260502122512 | 37 | 80 | 2.0 | 4.0 | 0.00 | 0.01 | 0.00 | 71 | 1018.1 |
| 20260502122448 | 37 | 62 | 1.0 | 6.0 | 0.00 | 0.01 | 0.00 | 71 | 1018.3 |
| 20260502121459 | 37 | 80 | 2.0 | 6.0 | 0.00 | 0.01 | 0.00 | 71 | 1018.1 |
| 20260502120958 | 36 | 68 | 4.0 | 5.0 | 0.00 | 0.01 | 0.00 | 71 | 1017.9 |
| 20260502120720 | 36 | 83 | 1.0 | 5.0 | 0.00 | 0.01 | 0.00 | 71 | 1017.9 |
| 20260502120447 | 36 | 52 | 0.0 | 3.0 | 0.00 | 0.01 | 0.00 | 71 | 1018.1 |
| 20260502115458 | 35 | 77 | 2.0 | 3.0 | 0.00 | 0.01 | 0.00 | 71 | 1017.9 |
| 20260502115002 | 35 | 66 | 0.0 | 3.0 | 0.00 | 0.01 | 0.00 | 71 | 1018.1 |
| 20260502114717 | 35 | 67 | 0.0 | 4.0 | 0.00 | 0.01 | 0.00 | 71 | 1017.6 |
| 20260502113955 | 35 | 74 | 0.0 | 4.0 | 0.00 | 0.02 | 0.00 | 71 | 1017.9 |
| 20260502113725 | 34 | 79 | 0.0 | 3.0 | 0.00 | 0.02 | 0.00 | 71 | 1017.8 |
| 20260502112955 | 34 | 69 | 0.0 | 2.0 | 0.00 | 0.02 | 0.00 | 71 | 1017.5 |
| 20260502112455 | 34 | 126 | 0.0 | 2.0 | 0.00 | 0.02 | 0.00 | 71 | 1018.0 |
| 20260502111954 | 34 | 69 | 1.0 | 2.0 | 0.00 | 0.02 | 0.00 | 71 | 1017.8 |
| 20260502111501 | 34 | 73 | 1.0 | 2.0 | 0.00 | 0.02 | 0.00 | 71 | 1017.6 |
| 20260502110954 | 34 | 85 | 1.0 | 2.0 | 0.00 | 0.02 | 0.00 | 70 | 1017.8 |
| 20260502110509 | 34 | 81 | 1.0 | 2.0 | 0.00 | 0.02 | 0.00 | 70 | 1017.6 |
| 20260502105953 | 34 | 84 | 1.0 | 2.0 | 0.00 | 0.02 | 0.00 | 70 | 1017.5 |
| 20260502105454 | 34 | 100 | 1.0 | 2.0 | 0.00 | 0.02 | 0.00 | 70 | 1017.8 |
| 20260502104952 | 34 | 67 | 0.0 | 2.0 | 0.00 | 0.03 | 0.00 | 70 | 1017.4 |
| 20260502104505 | 34 | 89 | 1.0 | 2.0 | 0.00 | 0.03 | 0.00 | 70 | 1017.4 |
| 20260502103955 | 34 | 117 | 0.0 | 2.0 | 0.00 | 0.03 | 0.00 | 69 | 1017.1 |
| 20260502103453 | 34 | 135 | 0.0 | 2.0 | 0.00 | 0.03 | 0.00 | 69 | 1017.2 |
| 20260502102952 | 34 | 84 | 1.0 | 2.0 | 0.00 | 0.04 | 0.00 | 69 | 1017.3 |
| 20260502102453 | 34 | 129 | 0.0 | 2.0 | 0.00 | 0.04 | 0.00 | 69 | 1017.3 |
| 20260502102223 | 34 | 63 | 0.0 | 3.0 | 0.00 | 0.04 | 0.00 | 69 | 1016.9 |
| 20260502101452 | 35 | 107 | 0.0 | 3.0 | 0.00 | 0.05 | 0.00 | 69 | 1017.3 |
| 20260502101003 | 35 | 84 | 1.0 | 3.0 | 0.00 | 0.05 | 0.00 | 69 | 1017.3 |
| 20260502100715 | 35 | 80 | 2.0 | 3.0 | 0.00 | 0.06 | 0.00 | 69 | 1017.4 |
| 20260502091449 | 37 | 89 | 0.0 | 2.0 | 0.00 | 0.08 | 0.00 | 67 | 1017.0 |
| 20260502091218 | 37 | 79 | 1.0 | 2.0 | 0.00 | 0.08 | 0.00 | 67 | 1017.0 |
| 20260502090451 | 37 | 70 | 1.0 | 3.0 | 0.00 | 0.08 | 0.00 | 67 | 1017.3 |
| 20260502070940 | 40 | 85 | 2.0 | 4.0 | 0.00 | 0.11 | 0.00 | 68 | 1016.4 |
| 20260502070442 | 40 | 107 | 0.0 | 4.0 | 0.00 | 0.11 | 0.00 | 68 | 1016.6 |
| 20260502065947 | 40 | 69 | 2.0 | 5.0 | 0.00 | 0.11 | 0.00 | 68 | 1016.6 |
| 20260502065447 | 40 | 72 | 2.0 | 5.0 | 0.00 | 0.11 | 0.00 | 68 | 1016.4 |
| 20260502064940 | 40 | 128 | 0.0 | 5.0 | 0.00 | 0.12 | 0.00 | 68 | 1016.6 |
| 20260502064453 | 40 | 56 | 1.0 | 4.0 | 0.00 | 0.13 | 0.00 | 68 | 1016.7 |
| 20260502063939 | 40 | 99 | 2.0 | 3.0 | 0.00 | 0.13 | 0.00 | 69 | 1016.5 |
| 20260502063440 | 40 | 72 | 1.0 | 3.0 | 0.00 | 0.13 | 0.00 | 69 | 1016.6 |
| 20260502062938 | 40 | 182 | 2.0 | 3.0 | 0.00 | 0.14 | 0.00 | 69 | 1016.5 |
| 20260502062703 | 40 | 95 | 1.0 | 2.0 | 0.00 | 0.14 | 0.00 | 69 | 1016.5 |
| 20260502061938 | 40 | 83 | 1.0 | 2.0 | 0.00 | 0.15 | 0.00 | 69 | 1016.6 |
| 20260502061439 | 40 | 77 | 2.0 | 2.0 | 0.00 | 0.16 | 0.00 | 69 | 1016.8 |
| 20260502060938 | 40 | 105 | 1.0 | 2.0 | 0.00 | 0.17 | 0.00 | 69 | 1016.7 |
| 20260502060439 | 40 | 89 | 0.0 | 2.0 | 0.00 | 0.17 | 0.00 | 69 | 1016.7 |
| 20260502055949 | 40 | 77 | 1.0 | 2.0 | 0.00 | 0.17 | 0.00 | 69 | 1016.7 |
| 20260502055451 | 40 | 101 | 0.0 | 2.0 | 0.00 | 0.17 | 0.00 | 69 | 1016.9 |
| 20260502054937 | 40 | 51 | 0.0 | 2.0 | 0.00 | 0.17 | 0.00 | 69 | 1016.9 |
| 20260502054438 | 40 | 76 | 0.0 | 2.0 | 0.00 | 0.17 | 0.00 | 69 | 1017.1 |
| 20260502053937 | 40 | 107 | 0.0 | 2.0 | 0.00 | 0.17 | 0.00 | 69 | 1016.9 |
| 20260502053438 | 40 | 65 | 1.0 | 2.0 | 0.00 | 0.19 | 0.00 | 69 | 1016.7 |
| 20260502052947 | 40 | 103 | 0.0 | 2.0 | 0.00 | 0.20 | 0.00 | 69 | 1016.9 |
| 20260502052657 | 40 | 124 | 0.0 | 2.0 | 0.00 | 0.20 | 0.00 | 69 | 1017.2 |
| 20260502051936 | 40 | 84 | 0.0 | 2.0 | 0.00 | 0.21 | 0.00 | 69 | 1017.1 |
| 20260502051437 | 40 | 107 | 1.0 | 2.0 | 0.00 | 0.22 | 0.00 | 69 | 1017.0 |
| 20260502050935 | 40 | 99 | 1.0 | 3.0 | 0.00 | 0.24 | 0.00 | 69 | 1016.8 |
| 20260502050657 | 40 | 76 | 1.0 | 3.0 | 0.00 | 0.26 | 0.00 | 69 | 1016.8 |
| 20260502045941 | 40 | 202 | 0.0 | 2.0 | 0.00 | 0.28 | 0.00 | 69 | 1016.9 |
| 20260502045702 | 40 | 132 | 0.0 | 2.0 | 0.00 | 0.29 | 0.00 | 69 | 1016.9 |
| 20260502044933 | 40 | 58 | 1.0 | 2.0 | 0.00 | 0.30 | 0.00 | 69 | 1017.0 |
| 20260502044658 | 40 | 89 | 0.0 | 2.0 | 0.00 | 0.30 | 0.00 | 69 | 1017.1 |
| 20260502043933 | 40 | 66 | 2.0 | 2.0 | 0.00 | 0.31 | 0.00 | 69 | 1016.8 |
| 20260502043435 | 40 | 89 | 1.0 | 2.0 | 0.00 | 0.33 | 0.00 | 69 | 1016.9 |
| 20260502042944 | 40 | 60 | 1.0 | 2.0 | 0.00 | 0.35 | 0.00 | 69 | 1016.8 |
| 20260502042436 | 40 | 99 | 0.0 | 2.0 | 0.00 | 0.35 | 0.00 | 69 | 1017.1 |
| 20260502041933 | 40 | 89 | 1.0 | 2.0 | 0.00 | 0.36 | 0.00 | 69 | 1016.8 |
| 20260502041433 | 39 | 78 | 1.0 | 2.0 | 0.00 | 0.36 | 0.00 | 69 | 1016.8 |
| 20260502040931 | 39 | 85 | 0.0 | 2.0 | 0.00 | 0.36 | 0.00 | 69 | 1016.5 |
| 20260502040433 | 39 | 88 | 1.0 | 2.0 | 0.00 | 0.37 | 0.00 | 69 | 1016.6 |
| 20260502035937 | 39 | 89 | 1.0 | 2.0 | 0.00 | 0.37 | 0.37 | 69 | 1016.7 |
| 20260502035432 | 39 | 96 | 1.0 | 2.0 | 0.00 | 0.37 | 0.37 | 69 | 1016.6 |
| 20260502034931 | 39 | 103 | 0.0 | 2.0 | 0.00 | 0.37 | 0.37 | 68 | 1016.7 |
| 20260502034432 | 39 | 73 | 2.0 | 2.0 | 0.00 | 0.37 | 0.37 | 68 | 1016.6 |
| 20260502033931 | 39 | 95 | 1.0 | 2.0 | 0.00 | 0.38 | 0.37 | 68 | 1016.4 |
| 20260502033432 | 39 | 93 | 0.0 | 2.0 | 0.00 | 0.38 | 0.37 | 68 | 1016.5 |
| 20260502033153 | 40 | 95 | 1.0 | 2.0 | 0.00 | 0.39 | 0.37 | 67 | 1016.5 |
| 20260502032432 | 40 | 89 | 1.0 | 2.0 | 0.00 | 0.39 | 0.37 | 67 | 1016.4 |
| 20260502031930 | 40 | 89 | 1.0 | 2.0 | 0.00 | 0.39 | 0.37 | 67 | 1016.4 |
| 20260502030929 | 40 | 84 | 0.0 | 2.0 | 0.00 | 0.40 | 0.37 | 67 | 1016.3 |
| 20260502030655 | 41 | 77 | 0.0 | 2.0 | 0.00 | 0.40 | 0.37 | 67 | 1016.4 |
| 20260502025936 | 41 | 82 | 0.0 | 2.0 | 0.00 | 0.40 | 0.37 | 67 | 1016.6 |
| 20260502025434 | 41 | 93 | 1.0 | 2.0 | 0.00 | 0.41 | 0.37 | 66 | 1016.5 |
| 20260502024928 | 42 | 73 | 1.0 | 3.0 | 0.00 | 0.41 | 0.37 | 67 | 1016.3 |
| 20260502024429 | 42 | 107 | 1.0 | 3.0 | 0.00 | 0.41 | 0.37 | 67 | 1016.4 |
| 20260502023928 | 42 | 56 | 1.0 | 3.0 | 0.00 | 0.41 | 0.37 | 67 | 1016.4 |
| 20260502023429 | 42 | 52 | 2.0 | 2.0 | 0.00 | 0.41 | 0.37 | 67 | 1016.4 |
| 20260502022927 | 42 | 104 | 1.0 | 2.0 | 0.00 | 0.41 | 0.37 | 67 | 1016.1 |
| 20260502022432 | 42 | 93 | 1.0 | 2.0 | 0.00 | 0.41 | 0.37 | 67 | 1016.4 |
| 20260502021927 | 43 | 114 | 0.0 | 2.0 | 0.00 | 0.41 | 0.37 | 67 | 1016.1 |
| 20260502021428 | 43 | 89 | 0.0 | 2.0 | 0.00 | 0.41 | 0.37 | 67 | 1016.2 |
| 20260502020926 | 43 | 93 | 2.0 | 3.0 | 0.00 | 0.41 | 0.37 | 67 | 1016.2 |
| 20260502020428 | 43 | 132 | 0.0 | 3.0 | 0.00 | 0.41 | 0.37 | 67 | 1016.2 |
| 20260502020149 | 43 | 67 | 1.0 | 3.0 | 0.00 | 0.42 | 0.37 | 67 | 1016.0 |
| 20260502015432 | 43 | 65 | 2.0 | 4.0 | 0.00 | 0.42 | 0.37 | 67 | 1016.2 |
| 20260502014930 | 43 | 89 | 0.0 | 4.0 | 0.00 | 0.43 | 0.37 | 67 | 1016.0 |
| 20260502014426 | 43 | 43 | 1.0 | 3.0 | 0.00 | 0.43 | 0.37 | 66 | 1016.1 |
| 20260502013925 | 43 | 70 | 1.0 | 3.0 | 0.00 | 0.43 | 0.37 | 66 | 1016.0 |
| 20260502013427 | 43 | 97 | 2.0 | 3.0 | 0.00 | 0.43 | 0.37 | 66 | 1015.9 |
| 20260502012924 | 43 | 73 | 0.0 | 2.0 | 0.00 | 0.43 | 0.37 | 66 | 1015.7 |
| 20260502012438 | 44 | 86 | 1.0 | 2.0 | 0.00 | 0.43 | 0.37 | 66 | 1015.6 |
| 20260502011928 | 44 | 68 | 0.0 | 2.0 | 0.00 | 0.43 | 0.37 | 66 | 1015.6 |
| 20260502011652 | 44 | 80 | 2.0 | 2.0 | 0.00 | 0.43 | 0.37 | 66 | 1015.7 |
| 20260502010923 | 44 | 87 | 1.0 | 2.0 | 0.00 | 0.43 | 0.37 | 66 | 1015.6 |
| 20260502010644 | 44 | 56 | 1.0 | 2.0 | 0.00 | 0.43 | 0.37 | 65 | 1015.7 |
| 20260502010201 | 44 | 89 | 1.0 | 5.0 | 0.00 | 0.43 | 0.37 | 65 | 1015.6 |
| 20260502005424 | 44 | 70 | 2.0 | 5.0 | 0.00 | 0.43 | 0.37 | 65 | 1015.5 |
| 20260502004935 | 44 | 44 | 0.0 | 5.0 | 0.00 | 0.43 | 0.37 | 65 | 1015.4 |
| 20260502004424 | 45 | 89 | 2.0 | 3.0 | 0.00 | 0.43 | 0.37 | 66 | 1015.6 |
| 20260502004147 | 45 | 49 | 2.0 | 3.0 | 0.00 | 0.43 | 0.37 | 66 | 1015.8 |
| 20260502003423 | 45 | 71 | 1.0 | 3.0 | 0.00 | 0.43 | 0.37 | 66 | 1015.5 |
| 20260502002921 | 45 | 44 | 2.0 | 3.0 | 0.00 | 0.43 | 0.37 | 66 | 1015.5 |
| 20260502002422 | 45 | 66 | 0.0 | 3.0 | 0.00 | 0.43 | 0.37 | 66 | 1015.6 |
| 20260502001921 | 45 | 72 | 1.0 | 3.0 | 0.00 | 0.43 | 0.37 | 66 | 1015.6 |
| 20260502001423 | 45 | 58 | 2.0 | 3.0 | 0.00 | 0.43 | 0.37 | 66 | 1015.4 |
| 20260502000924 | 45 | 34 | 2.0 | 4.0 | 0.00 | 0.43 | 0.37 | 66 | 1015.3 |
| 20260502000424 | 45 | 104 | 1.0 | 4.0 | 0.00 | 0.43 | 0.37 | 66 | 1015.2 |
| 20260501235920 | 45 | 67 | 1.0 | 4.0 | 0.00 | 0.43 | 0.37 | 66 | 1015.3 |
| 20260501235421 | 45 | 223 | 0.0 | 4.0 | 0.00 | 0.43 | 0.37 | 66 | 1015.3 |
| 20260501235142 | 45 | 119 | 0.0 | 4.0 | 0.00 | 0.43 | 0.37 | 66 | 1015.2 |
| 20260501234910 | 45 | 58 | 2.0 | 4.0 | 0.00 | 0.43 | 0.37 | 66 | 1015.3 |
| 20260501233919 | 45 | 72 | 0.0 | 4.0 | 0.00 | 0.43 | 0.37 | 66 | 1014.9 |